Location: La Brionne
(46.1728°N, 1.7849°E)
Time: 20:27:50
(UTC+00:00)

ARIANE 6 FM1 Upper Stage - Visible Passes

Search period start: 10 April 2026 00:00
Search period end: 20 April 2026 00:00
Orbit: 524 x 604 km, 62.0° (Epoch: 10 April)

Date Brightness Start Highest point End Pass type
(mag) Time Alt. Az. Time Alt. Az. Time Alt. Az.
10 Apr 6.0 01:00:02 10° N 01:00:54 11° NNE 01:01:48 10° NNE visible
10 Apr 4.3 02:37:29 10° NNW 02:41:05 32° NE 02:44:39 10° ESE visible
10 Apr 3.1 04:16:27 10° WNW 04:20:05 35° WSW 04:23:41 10° S visible
10 Apr 2.7 19:55:42 10° SW 19:59:50 78° NW 20:03:54 10° NE visible
10 Apr 5.5 21:36:43 10° WNW 21:39:26 17° NNW 21:42:08 10° NNE visible
11 Apr 5.8 00:59:10 10° N 01:00:49 12° NNE 01:02:28 10° NE visible
11 Apr 3.7 02:37:00 10° NNW 02:40:48 42° NE 02:44:35 10° ESE visible
11 Apr 3.6 04:16:21 10° WNW 04:19:35 24° WSW 04:22:48 10° S visible
11 Apr 3.3 19:55:25 10° SW 19:59:29 55° NW 20:03:29 10° NE visible
11 Apr 5.7 21:37:03 10° WNW 21:39:17 14° NNW 21:41:31 10° N visible
12 Apr 5.6 00:58:29 10° N 01:00:41 14° NNE 01:02:54 10° ENE visible
12 Apr 3.0 02:36:32 10° NW 02:40:28 59° NE 02:44:24 10° SE visible
12 Apr 4.0 04:16:27 10° WNW 04:19:03 17° WSW 04:21:39 10° SSW visible
12 Apr 4.0 19:55:15 10° WSW 19:59:10 40° NW 20:03:01 10° NNE visible
12 Apr 5.8 21:37:30 10° NW 21:39:10 12° NNW 21:40:49 10° N visible
13 Apr 5.3 00:57:51 10° NNW 01:00:32 17° NNE 01:01:14 16° NE visible
13 Apr 4.8 02:36:07 10° NW 02:44:13 - SE 02:36:59 16° NW visible
13 Apr 4.6 19:55:11 10° WSW 19:58:52 31° NW 20:02:31 10° NNE visible
13 Apr 5.9 21:38:11 10° NNW 21:39:03 11° NNW 21:39:56 10° N visible
14 Apr 5.2 00:57:15 10° NNW 00:59:02 18° N 00:59:02 18° N visible
14 Apr 5.0 19:55:13 10° W 19:58:37 24° NW 20:01:58 10° NNE visible
15 Apr 5.3 00:56:43 10° NNW 00:57:48 16° NNW 00:57:48 16° NNW visible
15 Apr 5.4 19:55:21 10° WNW 19:58:23 20° NNW 20:01:24 10° NNE visible
15 Apr 5.7 23:18:35 10° N 23:19:43 11° NNE 23:20:50 10° NNE visible
16 Apr 5.4 00:56:10 10° NNW 00:56:49 14° NNW 00:56:49 14° NNW visible
16 Apr 5.5 19:55:35 10° WNW 19:58:12 16° NNW 20:00:47 10° NNE visible
16 Apr 5.5 23:17:46 10° N 23:19:35 13° NNE 23:20:02 12° NNE visible
17 Apr 5.5 00:55:40 10° NNW 00:55:59 12° NNW 00:55:59 12° NNW visible
17 Apr 5.5 19:55:55 10° NW 19:58:01 14° NNW 20:00:08 10° N visible
17 Apr 5.4 23:17:04 10° N 23:19:15 15° NNE 23:19:15 15° NNE visible
18 Apr 5.6 00:55:12 10° NW 00:55:13 10° NW 00:55:13 10° NW visible
18 Apr 5.6 19:56:22 10° NW 19:57:53 12° NNW 19:59:22 10° N visible
18 Apr 5.2 23:16:26 10° NNW 23:18:32 17° NNE 23:18:32 17° NNE visible
19 Apr 5.8 19:57:09 10° NNW 19:57:45 10° NNW 19:58:20 10° N visible
19 Apr 5.1 23:15:50 10° NNW 23:17:50 19° N 23:17:50 19° N visible
